N8JLK-WX Weather Reports


time (UTC)temp
C
wind
direction
speed
KPH
gust
KPH
rain 1hr
cm
rain 24hr
cm
rain mn
cm
humidity
%
barometer
mb
20260502213548 5 56 1.6 4.8 0.00 0.00 0.00 54 1018.1
20260502212524 6 68 3.2 3.2 0.00 0.00 0.00 52 1018.0
20260502211519 6 83 3.2 4.8 0.00 0.00 0.00 52 1018.0
20260502210520 6 92 3.2 4.8 0.00 0.00 0.00 50 1018.0
20260502205528 7 73 4.8 6.4 0.00 0.00 0.00 50 1018.0
20260502204545 7 81 0.0 3.2 0.00 0.00 0.00 50 1018.1
20260502203519 7 87 1.6 4.8 0.00 0.00 0.00 48 1018.0
20260502202519 8 81 3.2 4.8 0.00 0.00 0.00 46 1018.0
20260502201533 8 71 3.2 4.8 0.00 0.00 0.00 46 1018.2
20260502200528 8 83 3.2 6.4 0.00 0.00 0.00 45 1018.2
20260502195523 8 78 3.2 6.4 0.00 0.00 0.00 45 1018.1
20260502194520 8 72 3.2 6.4 0.00 0.00 0.00 45 1018.1
20260502193552 8 85 3.2 4.8 0.00 0.00 0.00 45 1018.2
20260502192527 8 73 3.2 4.8 0.00 0.00 0.00 47 1018.4
20260502191543 8 85 3.2 4.8 0.00 0.00 0.00 46 1018.4
20260502190517 10 67 3.2 6.4 0.00 0.00 0.00 48 1018.4
20260502185518 10 72 3.2 6.4 0.00 0.00 0.00 47 1018.4
20260502184526 10 96 3.2 4.8 0.00 0.00 0.00 50 1018.6
20260502183521 10 106 3.2 4.8 0.00 0.00 0.00 50 1018.5
20260502182517 10 99 4.8 6.4 0.00 0.00 0.00 51 1018.6
20260502181518 10 89 3.2 6.4 0.00 0.00 0.00 51 1018.7
20260502180613 9 121 3.2 4.8 0.00 0.00 0.00 52 1018.8
20260502163546 5 22 1.6 3.2 0.00 0.00 0.00 76 1019.1
20260502162520 4 117 1.6 4.8 0.00 0.00 0.00 78 1019.1
20260502161515 4 101 1.6 3.2 0.00 0.00 0.00 80 1019.1
20260502160529 3 90 0.0 4.8 0.00 0.00 0.00 81 1019.1
20260502151520 2 138 3.2 4.8 0.00 0.00 0.00 87 1018.9
20260502150521 2 134 1.6 3.2 0.00 0.00 0.00 89 1018.9
20260502130516 0 123 1.6 6.4 0.00 0.00 0.00 93 1018.2
20260502123528 0 0.0 1.6 0.00 0.00 0.00 93 1018.2
20260502122524 0 135 0.0 3.2 0.00 0.00 0.00 93 1018.0
20260502121539 0 158 1.6 3.2 0.00 0.00 0.00 93 1017.8
20260502120526 0 141 3.2 3.2 0.00 0.00 0.00 93 1017.8
20260502115521 0 160 1.6 4.8 0.00 0.00 0.00 93 1017.7
20260502113519 0 137 3.2 4.8 0.00 0.00 0.00 93 1017.6
20260502112551 0 156 3.2 4.8 0.00 0.00 0.00 92 1017.6
20260502111526 0 144 3.2 4.8 0.00 0.00 0.00 91 1017.6
20260502110522 0 135 1.6 3.2 0.00 0.00 0.00 91 1017.6
20260502105517 0 113 0.0 3.2 0.00 0.00 0.00 90 1017.5
20260502104530 0 158 1.6 3.2 0.00 0.00 0.00 90 1017.4
20260502103525 0 135 0.0 3.2 0.00 0.00 0.00 90 1017.3
20260502102521 0 124 1.6 3.2 0.00 0.00 0.00 89 1017.2
20260502101515 0 144 1.6 3.2 0.00 0.00 0.00 89 1017.3
20260502100538 0 23 0.0 4.8 0.00 0.00 0.00 89 1017.3
20260502090531 1 0.0 0.0 0.00 0.00 0.00 89 1016.9
20260502071516 1 0.0 0.0 0.00 0.00 0.00 88 1017.0
20260502070530 1 0.0 0.0 0.00 0.00 0.00 88 1017.0
20260502065545 1 0.0 0.0 0.00 0.00 0.00 88 1017.0
20260502064522 1 0.0 0.0 0.00 0.00 0.00 88 1017.0
20260502063516 1 0.0 0.0 0.00 0.00 0.00 88 1017.1
20260502062529 1 0.0 1.6 0.00 0.00 0.00 88 1017.1
20260502061547 1 148 1.6 4.8 0.00 0.00 0.00 88 1017.3
20260502060521 1 135 0.0 1.6 0.00 0.00 0.00 87 1017.4
20260502055516 1 0.0 0.0 0.00 0.00 0.00 86 1017.5
20260502054530 1 0.0 0.0 0.00 0.00 0.00 86 1017.5
20260502053526 1 121 0.0 3.2 0.00 0.00 0.00 86 1017.6
20260502052521 1 146 1.6 3.2 0.00 0.00 0.00 86 1017.7
20260502051539 2 0.0 0.0 0.00 0.00 0.00 85 1017.8
20260502050531 2 0.0 0.0 0.00 0.00 0.00 85 1017.8
20260502045526 2 0.0 0.0 0.00 0.00 0.00 85 1017.9
20260502044521 2 0.0 0.0 0.00 0.00 0.00 85 1018.0
20260502043550 2 0.0 0.0 0.00 0.00 0.00 85 1017.9
20260502042531 2 0.0 0.0 0.00 0.00 0.00 85 1017.9
20260502041547 2 0.0 0.0 0.00 0.00 0.00 84 1017.8
20260502040516 2 0.0 0.0 0.00 0.00 0.00 84 1017.8
20260502035516 2 0.0 0.0 0.00 0.00 0.00 84 1017.8
20260502034519 2 0.0 0.0 0.00 0.00 0.00 84 1017.6
20260502033541 2 83 0.0 3.2 0.00 0.00 0.00 84 1017.5
20260502032550 2 0.0 0.0 0.00 0.00 0.00 84 1017.4
20260502031523 2 0.0 0.0 0.00 0.00 0.00 84 1017.3
20260502030519 2 63 3.2 4.8 0.00 0.00 0.00 84 1017.3
20260502025519 2 0.0 0.0 0.00 0.00 0.00 84 1017.3
20260502024532 2 0.0 0.0 0.00 0.00 0.00 84 1017.3
20260502023529 2 0.0 0.0 0.00 0.00 0.00 83 1017.3
20260502022523 2 0.0 0.0 0.00 0.00 0.00 83 1017.3
20260502021525 2 0.0 0.0 0.00 0.00 0.00 82 1017.3
20260502020526 2 0.0 0.0 0.00 0.00 0.00 82 1017.2
20260502015542 2 0.0 0.0 0.00 0.00 0.00 82 1017.1
20260502014516 2 0.0 0.0 0.00 0.00 0.00 81 1017.2
20260502013529 2 0.0 0.0 0.00 0.00 0.00 81 1017.0
20260502012520 2 0.0 0.0 0.00 0.00 0.00 79 1016.9
20260502011528 2 0.0 0.0 0.00 0.00 0.00 79 1016.7
20260502010522 2 0.0 0.0 0.00 0.00 0.00 78 1016.7
20260502005518 2 0.0 0.0 0.00 0.00 0.00 78 1016.6
20260502004520 3 0.0 0.0 0.00 0.00 0.00 77 1016.4
20260502003532 3 0.0 0.0 0.00 0.00 0.00 77 1016.2
20260502002528 3 0.0 0.0 0.00 0.00 0.00 76 1016.0
20260502001525 3 0.0 0.0 0.00 0.00 0.00 75 1015.9
20260502000520 4 0.0 0.0 0.00 0.00 0.00 75 1015.8
20260501235534 4 95 1.6 3.2 0.00 0.00 0.00 75 1015.8
20260501234528 5 79 0.0 3.2 0.00 0.00 0.00 75 1015.8
20260501233544 5 0.0 0.0 0.00 0.00 0.00 75 1015.8
20260501232539 5 75 1.6 3.2 0.00 0.00 0.00 75 1015.8
20260501231533 5 103 0.0 3.2 0.00 0.00 0.00 75 1015.7
20260501230529 5 68 1.6 3.2 0.00 0.00 0.00 74 1015.6
20260501225604 5 68 3.2 4.8 0.00 0.00 0.00 74 1015.5
20260501224519 5 68 3.2 4.8 0.00 0.00 0.00 74 1015.4
20260501223531 5 81 1.6 4.8 0.00 0.00 0.00 74 1015.3
20260501222527 6 74 3.2 4.8 0.00 0.00 0.00 75 1015.3
20260501221523 6 52 1.6 3.2 0.00 0.00 0.00 76 1015.4
20260501220517 6 114 1.6 4.8 0.00 0.00 0.00 77 1015.4
20260501215531 6 86 1.6 3.2 0.00 0.00 0.00 78 1015.3
20260501214526 6 85 1.6 3.2 0.00 0.00 0.00 79 1015.4